FENGYUN 1C DEB, 38510

Orbit data source: Space-Track

FENGYUN 1C DEB, 38510 is space debris in SSO originally from a launch on Mon, 10 May 1999 UTC launched from the Taiyaun Space Center, China (TSC). Fengyun 1C debris stems from the Chinese weather satellite Fengyun-1C, which was intentionally destroyed by a Chinese anti-satellite missile in 2007. This event dramatically increased the amount of space debris, with thousands of trackable fragments posing hazards to satellites and human spaceflight. The Fengyun 1C debris cloud has become a focal point in discussions about space sustainability and the need for international regulations to prevent the creation of new debris.

Loading next visibility...
Identifier
38510, 1999-025ESV
Orbit
SSO
Country
Flag of CNCN / PRC
Related business
Manufacturer
Unknown
Mission
Spacecraft
Bus & Motor
Unknown
Mass
Unknown
Launch date (UTC)
1999-05-10 (27 years ago)
Launch vehicle
Unknown
Launch site
Taiyaun Space Center, China (TSC)
Object type
Payload
Rocket body
Debris
Shape & HBR
Unknown shape, 0.1 m
Radar Cross Section
Small (<0.1 m²)

Expand to show TLE details & history
Last TLE update: 21 hours ago

TLE from 21 hours ago
0 FENGYUN 1C DEB
1 38510U 99025ESV 26165.73231930  .00000850  00000-0  45100-3 0  9996
2 38510  98.5981 172.8238 0097018 345.0340  14.7967 14.13777403912692
Epoch: 2026-06-14T17:34Z
TLE epoch observation values (Epoch: 2026-06-14T17:34:32.387Z)
Latitude
-0.00003°
Longitude
6.16002°
Altitude
781.648 km
Speed
7.498 km/s
True Right ascension
11h 31m 17s
True Declination
0° 00' 00"
Sunlit
Object was in daylight at epoch
Visualization orbit readout
Latitude
Unknown
Longitude
Unknown
Altitude
Unknown
Speed
Unknown
Apparent Right ascension
Unknown
Apparent Declination
Unknown
Sunlit
N/A
Visualization observer readout
Local Sidereal Time
01:14:36
Azimuth
Unknown
Elevation
Unknown
Doppler factor
Unknown
Orbital elements
Apogee altitude
913.7 km
Perigee altitude
773.571 km
Semi-major axis
7,221.772 km
Eccentricity
0.0097
Inclination
98.5981°
RAAN
172.8238°
Arg. of periapsis
345.034°
True anomaly
15.08399°
Mean anomaly
14.7967°
Eccentric anomaly
14.94001°
Mean motion
3.53653 °/min
Orbital period
101.79 mins
BSTAR
0.000451
Loading maneuver chart data...
Computing Atmospheric mass density...
Loading historical data...
Loading historical data...
Loading historical data...
Loading historical data...
Loading historical data...
Loading historical data...
Loading historical data...

Documentation

Showing up to 5 results
|